一网星座-0536星 (ONEWEB-0536 )

导读

ONEWEB-0536是英国OneWeb公司低轨互联网卫星星座的组网卫星,于2022年10月22日发射入轨,归属英国主导的OneWeb低轨卫星互联网项目。该项目旨在通过近地轨道卫星星座,为全球偏远地区及网络基础设施薄弱区域提供低延迟、性价比高的宽带互联网接入服务,是全球低轨卫星通信星座建设的重要组成部分,补充完善了OneWeb第一代组网星座的覆盖能力。

基本信息
目录编号:
54148
目录名称:
ONEWEB-0536
国际标识:
2022-138AM
轨道中心:
EARTH
卫星名称:
一网星座-0536星
卫星全名:
一网星座-0536星 (ONEWEB-0536 )
卫星状态:
在轨 (已飞行1331 天)
发射日期:
2022-10-22 UTC
国别 :
英国 (GB)
星等 :
--
轨道信息
数据来源 国际轨道数据 AOE轨道数据
星历时间 2026-06-14T03:27:07+0800
16小时前
查看轨道信息
2026-06-12T04:00:00+0800
2天前
查看轨道信息
半长轴 7559.914km 7559.893km
偏心率 0.0002919 0.000299
轨道倾角 87.918° 87.918°
近地点辐角 110.211° 111.073°
升交点赤经 275.131° 275.523°
平近点角 249.934° 213.506°
近地点 1179.57km 1179.495km
远地点 1183.984km 1184.017km
周期 109.027分钟 109.027分钟
每日圈数 13.207709 13.207765
详细信息
平衡模式:
三轴稳定
覆盖范围:
全球
运营商:
一网卫星公司
运营商所在国:
英国
制造商(研发单位):
一网卫星公司
制造商所在国:
英国
使用方式:
暂无
卫星简介
OneWeb卫星网络由648颗重约125公斤的微型卫星组成,运行在1200公里的轨道上。 每颗卫星都能够提供至少每秒8千兆位的吞吐量,以使用其高吞吐量的Ku频段有效载荷为家庭和移动平台提供互联网接入。该卫星仍在工作。
2D轨道图
3D轨道图
轨道高度分析图
轨道倾角分析图
轨道综合分析图
查看轨道综合分析图